| time (UTC) | temp F | wind direction | speed MPH | gust MPH | rain 1hr in | rain 24hr in | rain mn in | humidity % | barometer mb |
| 20260831110004 | 61 | 175 | 0.0 | 0.0 | 0.00 | 0.06 | 0.00 | 94 | 1018.8 |
| 20260831105507 | 61 | 175 | 0.0 | 0.0 | 0.00 | 0.06 | 0.00 | 94 | 1018.7 |
| 20260831105004 | 61 | 175 | 0.0 | 0.0 | 0.00 | 0.06 | 0.00 | 94 | 1018.5 |
| 20260831104513 | 61 | 175 | 0.0 | 0.0 | 0.00 | 0.06 | 0.00 | 94 | 1018.6 |
| 20260831104003 | 61 | 175 | 0.0 | 0.0 | 0.00 | 0.06 | 0.00 | 94 | 1018.6 |
| 20260831103503 | 61 | 198 | 0.0 | 0.0 | 0.00 | 0.06 | 0.00 | 94 | 1018.4 |
| 20260831103013 | 61 | 198 | 0.0 | 2.0 | 0.00 | 0.06 | 0.00 | 94 | 1018.3 |
| 20260831102505 | 61 | 200 | 0.0 | 2.0 | 0.00 | 0.06 | 0.00 | 94 | 1018.4 |
| 20260831102003 | 61 | 197 | 0.0 | 3.0 | 0.00 | 0.06 | 0.00 | 94 | 1018.3 |
| 20260831101503 | 61 | 193 | 1.0 | 3.0 | 0.00 | 0.06 | 0.00 | 94 | 1018.4 |
| 20260831101001 | 61 | 193 | 1.0 | 3.0 | 0.00 | 0.06 | 0.00 | 94 | 1018.3 |
| 20260831100501 | 61 | 194 | 0.0 | 3.0 | 0.00 | 0.06 | 0.00 | 94 | 1018.3 |
| 20260831100001 | 61 | 195 | 0.0 | 2.0 | 0.00 | 0.06 | 0.00 | 94 | 1018.3 |
| 20260831095501 | 61 | 195 | 0.0 | 4.0 | 0.00 | 0.06 | 0.00 | 94 | 1018.2 |
| 20260831095001 | 61 | 195 | 0.0 | 4.0 | 0.00 | 0.06 | 0.00 | 94 | 1018.2 |
| 20260831094501 | 61 | 225 | 0.0 | 0.0 | 0.00 | 0.06 | 0.00 | 94 | 1018.1 |
| 20260831094001 | 61 | 230 | 0.0 | 0.0 | 0.00 | 0.06 | 0.00 | 94 | 1018.1 |
| 20260831093601 | 61 | 230 | 0.0 | 3.0 | 0.00 | 0.06 | 0.00 | 94 | 1018.1 |
| 20260831093113 | 61 | 240 | 1.0 | 3.0 | 0.00 | 0.06 | 0.00 | 94 | 1018.1 |
| 20260831092600 | 61 | 242 | 1.0 | 3.0 | 0.00 | 0.06 | 0.00 | 94 | 1018.2 |
| 20260831092059 | 61 | 254 | 0.0 | 3.0 | 0.00 | 0.06 | 0.00 | 94 | 1018.3 |
| 20260831091602 | 61 | 274 | 0.0 | 0.0 | 0.00 | 0.06 | 0.00 | 94 | 1018.3 |
| 20260831091059 | 61 | 302 | 0.0 | 0.0 | 0.00 | 0.06 | 0.00 | 94 | 1018.1 |
| 20260831090600 | 61 | 302 | 0.0 | 0.0 | 0.00 | 0.06 | 0.00 | 94 | 1018.1 |
| 20260831090123 | 61 | 360 | 0.0 | 0.0 | 0.00 | 0.06 | 0.00 | 94 | 1018.1 |
| 20260831085559 | 61 | 274 | 0.0 | 0.0 | 0.00 | 0.06 | 0.00 | 94 | 1018.1 |
| 20260831085100 | 61 | 303 | 0.0 | 0.0 | 0.00 | 0.06 | 0.00 | 94 | 1018.0 |
| 20260831084557 | 61 | 303 | 0.0 | 0.0 | 0.00 | 0.06 | 0.00 | 94 | 1018.0 |
| 20260831084101 | 61 | 303 | 0.0 | 0.0 | 0.00 | 0.06 | 0.00 | 94 | 1018.2 |
| 20260831083557 | 61 | 303 | 0.0 | 0.0 | 0.00 | 0.06 | 0.00 | 94 | 1018.0 |
| 20260831083109 | 61 | 303 | 0.0 | 0.0 | 0.00 | 0.06 | 0.00 | 94 | 1018.0 |
| 20260831082557 | 61 | 303 | 0.0 | 0.0 | 0.00 | 0.06 | 0.00 | 94 | 1018.1 |
| 20260831082057 | 61 | 360 | 0.0 | 0.0 | 0.00 | 0.06 | 0.00 | 94 | 1018.0 |
| 20260831081601 | 61 | 360 | 0.0 | 0.0 | 0.00 | 0.06 | 0.00 | 94 | 1018.0 |
| 20260831081056 | 61 | 360 | 0.0 | 0.0 | 0.00 | 0.06 | 0.00 | 94 | 1017.9 |
| 20260831080558 | 61 | 360 | 0.0 | 0.0 | 0.00 | 0.06 | 0.00 | 94 | 1018.1 |
| 20260831080126 | 61 | 303 | 0.0 | 0.0 | 0.00 | 0.06 | 0.00 | 94 | 1018.1 |
| 20260831075556 | 61 | 303 | 0.0 | 0.0 | 0.00 | 0.06 | 0.00 | 94 | 1018.1 |
| 20260831075055 | 61 | 303 | 0.0 | 0.0 | 0.00 | 0.06 | 0.00 | 94 | 1018.1 |
| 20260831074555 | 61 | 303 | 0.0 | 0.0 | 0.00 | 0.06 | 0.00 | 94 | 1018.0 |
| 20260831074056 | 61 | 303 | 0.0 | 0.0 | 0.00 | 0.06 | 0.00 | 94 | 1018.1 |
| 20260831073555 | 61 | 303 | 0.0 | 2.0 | 0.00 | 0.06 | 0.00 | 94 | 1018.1 |
| 20260831073055 | 61 | 303 | 0.0 | 2.0 | 0.00 | 0.06 | 0.00 | 94 | 1018.1 |
| 20260831072554 | 61 | 303 | 0.0 | 2.0 | 0.00 | 0.06 | 0.00 | 94 | 1018.1 |
| 20260831072053 | 62 | 302 | 0.0 | 2.0 | 0.00 | 0.06 | 0.00 | 94 | 1018.1 |
| 20260831071555 | 62 | 302 | 0.0 | 3.0 | 0.00 | 0.06 | 0.00 | 94 | 1018.1 |
| 20260831071053 | 62 | 302 | 0.0 | 4.0 | 0.00 | 0.06 | 0.00 | 94 | 1018.1 |
| 20260831070553 | 62 | 303 | 0.0 | 4.0 | 0.00 | 0.06 | 0.00 | 94 | 1018.0 |
| 20260831070053 | 62 | 302 | 0.0 | 2.0 | 0.00 | 0.06 | 0.00 | 94 | 1018.0 |
| 20260831065552 | 62 | 302 | 0.0 | 3.0 | 0.00 | 0.06 | 0.00 | 94 | 1017.9 |
| 20260831065052 | 62 | 302 | 1.0 | 3.0 | 0.00 | 0.06 | 0.00 | 94 | 1017.8 |
| 20260831064552 | 62 | 309 | 0.0 | 0.0 | 0.00 | 0.06 | 0.00 | 94 | 1017.8 |
| 20260831064051 | 62 | 309 | 0.0 | 0.0 | 0.00 | 0.06 | 0.00 | 94 | 1017.9 |
| 20260831063551 | 62 | 309 | 0.0 | 0.0 | 0.00 | 0.06 | 0.00 | 94 | 1017.8 |
| 20260831063107 | 62 | 309 | 0.0 | 0.0 | 0.00 | 0.06 | 0.00 | 94 | 1017.9 |
| 20260831062550 | 62 | 309 | 0.0 | 0.0 | 0.00 | 0.06 | 0.00 | 94 | 1018.0 |
| 20260831062052 | 62 | 309 | 0.0 | 0.0 | 0.00 | 0.06 | 0.00 | 94 | 1018.0 |
| 20260831061550 | 62 | 309 | 0.0 | 0.0 | 0.00 | 0.06 | 0.00 | 94 | 1018.1 |
| 20260831061048 | 62 | 309 | 0.0 | 0.0 | 0.00 | 0.06 | 0.00 | 94 | 1018.1 |
| 20260831060548 | 62 | 309 | 0.0 | 0.0 | 0.00 | 0.06 | 0.00 | 94 | 1018.2 |
| 20260831060049 | 62 | 309 | 0.0 | 0.0 | 0.00 | 0.06 | 0.00 | 94 | 1018.2 |
| 20260831055547 | 62 | 309 | 0.0 | 0.0 | 0.00 | 0.06 | 0.00 | 94 | 1018.3 |
| 20260831055047 | 62 | 310 | 0.0 | 0.0 | 0.00 | 0.06 | 0.00 | 94 | 1018.3 |
| 20260831054547 | 62 | 310 | 0.0 | 0.0 | 0.00 | 0.06 | 0.00 | 94 | 1018.4 |
| 20260831054047 | 62 | 310 | 0.0 | 0.0 | 0.00 | 0.06 | 0.00 | 94 | 1018.4 |
| 20260831053547 | 62 | 310 | 0.0 | 0.0 | 0.00 | 0.00 | 0.00 | 94 | 1018.5 |
| 20260831053122 | 62 | 310 | 0.0 | 0.0 | 0.00 | 0.06 | 0.00 | 94 | 1018.5 |
| 20260831052548 | 62 | 310 | 0.0 | 0.0 | 0.00 | 0.06 | 0.00 | 94 | 1018.5 |
| 20260831052046 | 62 | 310 | 0.0 | 0.0 | 0.00 | 0.06 | 0.00 | 94 | 1018.4 |
| 20260831051546 | 62 | 310 | 0.0 | 0.0 | 0.00 | 0.06 | 0.00 | 94 | 1018.4 |
| 20260831051045 | 62 | 310 | 0.0 | 0.0 | 0.00 | 0.06 | 0.00 | 94 | 1018.3 |
| 20260831050545 | 62 | 310 | 0.0 | 1.0 | 0.00 | 0.06 | 0.00 | 94 | 1018.2 |
| 20260831050044 | 62 | 310 | 0.0 | 3.0 | 0.00 | 0.06 | 0.00 | 94 | 1018.3 |
| 20260831045544 | 62 | 310 | 0.0 | 3.0 | 0.00 | 0.06 | 0.00 | 94 | 1018.3 |
| 20260831045043 | 62 | 309 | 0.0 | 3.0 | 0.00 | 0.06 | 0.00 | 93 | 1018.4 |
| 20260831044635 | 62 | 309 | 1.0 | 4.0 | 0.00 | 0.06 | 0.00 | 93 | 1018.4 |
| 20260831044042 | 62 | 309 | 2.0 | 4.0 | 0.00 | 0.06 | 0.00 | 93 | 1018.5 |
| 20260831043542 | 62 | 284 | 1.0 | 3.0 | 0.00 | 0.06 | 0.00 | 93 | 1018.7 |
| 20260831043042 | 62 | 304 | 1.0 | 3.0 | 0.01 | 0.06 | 0.00 | 93 | 1018.7 |
| 20260831042541 | 62 | 303 | 1.0 | 4.0 | 0.01 | 0.06 | 0.00 | 94 | 1018.7 |
| 20260831042041 | 62 | 291 | 1.0 | 4.0 | 0.02 | 0.06 | 0.00 | 93 | 1018.6 |
| 20260831041544 | 62 | 286 | 0.0 | 2.0 | 0.02 | 0.06 | 0.00 | 93 | 1018.7 |
| 20260831041040 | 62 | 285 | 0.0 | 0.0 | 0.02 | 0.06 | 0.00 | 93 | 1018.6 |
| 20260831040540 | 62 | 284 | 0.0 | 0.0 | 0.02 | 0.06 | 0.00 | 93 | 1018.6 |
| 20260831040039 | 62 | 284 | 0.0 | 2.0 | 0.02 | 0.06 | 0.00 | 93 | 1018.7 |
| 20260831035539 | 62 | 284 | 0.0 | 4.0 | 0.02 | 0.06 | 0.06 | 93 | 1018.7 |
| 20260831035039 | 62 | 284 | 0.0 | 4.0 | 0.03 | 0.06 | 0.06 | 93 | 1018.8 |
| 20260831034538 | 62 | 302 | 0.0 | 3.0 | 0.03 | 0.06 | 0.06 | 93 | 1018.8 |
| 20260831034038 | 62 | 298 | 0.0 | 4.0 | 0.03 | 0.06 | 0.06 | 93 | 1018.8 |
| 20260831033538 | 62 | 298 | 1.0 | 4.0 | 0.03 | 0.06 | 0.06 | 93 | 1018.7 |
| 20260831033052 | 62 | 273 | 0.0 | 0.0 | 0.02 | 0.05 | 0.05 | 93 | 1018.7 |
| 20260831032540 | 62 | 270 | 0.0 | 4.0 | 0.02 | 0.05 | 0.05 | 93 | 1018.7 |
| 20260831032036 | 62 | 270 | 0.0 | 4.0 | 0.01 | 0.04 | 0.04 | 93 | 1018.8 |
| 20260831031538 | 62 | 290 | 0.0 | 0.0 | 0.01 | 0.04 | 0.04 | 93 | 1018.8 |
| 20260831031036 | 62 | 360 | 0.0 | 0.0 | 0.01 | 0.04 | 0.04 | 93 | 1018.7 |
| 20260831030536 | 62 | 360 | 0.0 | 1.0 | 0.01 | 0.04 | 0.04 | 93 | 1018.6 |
| 20260831030036 | 62 | 296 | 0.0 | 3.0 | 0.01 | 0.04 | 0.04 | 93 | 1018.6 |
| 20260831025536 | 62 | 300 | 0.0 | 3.0 | 0.01 | 0.04 | 0.04 | 93 | 1018.7 |
| 20260831025037 | 62 | 293 | 0.0 | 2.0 | 0.00 | 0.03 | 0.03 | 93 | 1018.6 |
| 20260831024536 | 62 | 293 | 0.0 | 4.0 | 0.00 | 0.03 | 0.03 | 93 | 1018.6 |
| 20260831024038 | 62 | 293 | 1.0 | 5.0 | 0.00 | 0.03 | 0.03 | 93 | 1018.6 |
| 20260831023535 | 62 | 281 | 1.0 | 5.0 | 0.00 | 0.03 | 0.03 | 93 | 1018.6 |
| 20260831023035 | 62 | 264 | 0.0 | 6.0 | 0.00 | 0.03 | 0.03 | 93 | 1018.5 |
| 20260831022536 | 62 | 271 | 1.0 | 6.0 | 0.00 | 0.03 | 0.03 | 93 | 1018.4 |
| 20260831022035 | 62 | 298 | 2.0 | 5.0 | 0.00 | 0.03 | 0.03 | 93 | 1018.4 |
| 20260831021535 | 62 | 294 | 1.0 | 6.0 | 0.00 | 0.03 | 0.03 | 93 | 1018.5 |
| 20260831021035 | 62 | 290 | 0.0 | 5.0 | 0.00 | 0.03 | 0.03 | 93 | 1018.4 |
| 20260831020535 | 62 | 288 | 1.0 | 5.0 | 0.00 | 0.03 | 0.03 | 93 | 1018.4 |
| 20260831020035 | 62 | 293 | 2.0 | 6.0 | 0.00 | 0.03 | 0.03 | 93 | 1018.4 |
| 20260831015534 | 62 | 297 | 0.0 | 7.0 | 0.00 | 0.03 | 0.03 | 93 | 1018.3 |
| 20260831015034 | 62 | 304 | 2.0 | 7.0 | 0.00 | 0.03 | 0.03 | 93 | 1018.4 |
| 20260831014534 | 62 | 259 | 0.0 | 4.0 | 0.00 | 0.03 | 0.03 | 93 | 1018.4 |
| 20260831014034 | 62 | 269 | 1.0 | 5.0 | 0.00 | 0.03 | 0.03 | 93 | 1018.4 |
| 20260831013533 | 62 | 252 | 1.0 | 5.0 | 0.00 | 0.03 | 0.03 | 93 | 1018.5 |
| 20260831013036 | 62 | 249 | 0.0 | 4.0 | 0.00 | 0.03 | 0.03 | 93 | 1018.5 |
| 20260831012534 | 62 | 299 | 0.0 | 5.0 | 0.00 | 0.03 | 0.03 | 93 | 1018.5 |
| 20260831012034 | 62 | 304 | 0.0 | 5.0 | 0.00 | 0.03 | 0.03 | 93 | 1018.5 |
| 20260831011533 | 62 | 302 | 1.0 | 4.0 | 0.00 | 0.03 | 0.03 | 93 | 1018.5 |
| 20260831011032 | 62 | 267 | 1.0 | 5.0 | 0.00 | 0.03 | 0.03 | 93 | 1018.4 |
| 20260831010532 | 62 | 290 | 0.0 | 8.0 | 0.00 | 0.03 | 0.03 | 93 | 1018.3 |
| 20260831010053 | 62 | 306 | 1.0 | 8.0 | 0.00 | 0.03 | 0.03 | 93 | 1018.3 |
| 20260831005532 | 62 | 360 | 2.0 | 4.0 | 0.00 | 0.03 | 0.03 | 93 | 1018.2 |
| 20260831005032 | 62 | 298 | 1.0 | 5.0 | 0.00 | 0.03 | 0.03 | 93 | 1018.2 |
| 20260831004532 | 62 | 287 | 1.0 | 6.0 | 0.00 | 0.03 | 0.03 | 93 | 1018.0 |
| 20260831004032 | 62 | 292 | 2.0 | 6.0 | 0.00 | 0.03 | 0.03 | 92 | 1018.0 |
| 20260831003531 | 62 | 288 | 2.0 | 5.0 | 0.00 | 0.03 | 0.03 | 92 | 1017.9 |
| 20260831003034 | 62 | 360 | 1.0 | 4.0 | 0.00 | 0.03 | 0.03 | 92 | 1017.8 |
| 20260831002531 | 62 | 288 | 1.0 | 5.0 | 0.00 | 0.03 | 0.03 | 92 | 1017.7 |
| 20260831002031 | 62 | 296 | 2.0 | 8.0 | 0.00 | 0.03 | 0.03 | 92 | 1017.5 |
| 20260831001531 | 62 | 297 | 1.0 | 8.0 | 0.00 | 0.03 | 0.03 | 92 | 1017.4 |
| 20260831001031 | 62 | 282 | 1.0 | 4.0 | 0.00 | 0.03 | 0.03 | 92 | 1017.3 |
| 20260831000530 | 62 | 275 | 1.0 | 5.0 | 0.00 | 0.03 | 0.03 | 92 | 1017.2 |
| 20260831000030 | 62 | 266 | 2.0 | 7.0 | 0.00 | 0.03 | 0.03 | 92 | 1017.2 |
| 20260830235530 | 62 | 298 | 2.0 | 7.0 | 0.00 | 0.03 | 0.03 | 92 | 1017.0 |
| 20260830235029 | 62 | 299 | 0.0 | 5.0 | 0.00 | 0.03 | 0.03 | 92 | 1017.0 |
| 20260830234530 | 62 | 280 | 1.0 | 5.0 | 0.00 | 0.03 | 0.03 | 92 | 1017.0 |
| 20260830234029 | 62 | 360 | 1.0 | 5.0 | 0.00 | 0.03 | 0.03 | 92 | 1017.0 |
| 20260830233529 | 62 | 301 | 0.0 | 3.0 | 0.00 | 0.03 | 0.03 | 92 | 1016.9 |
| 20260830233036 | 62 | 360 | 1.0 | 4.0 | 0.00 | 0.03 | 0.03 | 92 | 1016.8 |
| 20260830232529 | 62 | 300 | 0.0 | 4.0 | 0.00 | 0.03 | 0.03 | 92 | 1016.8 |
| 20260830232028 | 62 | 308 | 0.0 | 3.0 | 0.00 | 0.03 | 0.03 | 92 | 1016.7 |
| 20260830231529 | 62 | 238 | 1.0 | 3.0 | 0.00 | 0.03 | 0.03 | 92 | 1016.7 |
| 20260830231028 | 62 | 207 | 0.0 | 2.0 | 0.00 | 0.03 | 0.03 | 92 | 1016.7 |
| 20260830230528 | 62 | 207 | 0.0 | 3.0 | 0.00 | 0.03 | 0.03 | 92 | 1016.7 |
| 20260830230028 | 62 | 287 | 0.0 | 3.0 | 0.00 | 0.03 | 0.03 | 92 | 1016.7 |
| 20260830225528 | 62 | 261 | 0.0 | 3.0 | 0.00 | 0.03 | 0.03 | 92 | 1016.7 |
| 20260830225028 | 62 | 261 | 1.0 | 3.0 | 0.00 | 0.03 | 0.03 | 92 | 1016.7 |
| 20260830224528 | 62 | 281 | 0.0 | 3.0 | 0.00 | 0.03 | 0.03 | 92 | 1016.7 |
| 20260830224028 | 62 | 269 | 0.0 | 0.0 | 0.00 | 0.03 | 0.03 | 92 | 1016.7 |
| 20260830223528 | 62 | 293 | 0.0 | 3.0 | 0.00 | 0.03 | 0.03 | 92 | 1016.8 |
| 20260830223033 | 62 | 360 | 0.0 | 4.0 | 0.01 | 0.03 | 0.03 | 92 | 1016.7 |
| 20260830222527 | 62 | 292 | 1.0 | 4.0 | 0.01 | 0.03 | 0.03 | 92 | 1016.7 |
| 20260830222027 | 62 | 360 | 0.0 | 2.0 | 0.01 | 0.03 | 0.03 | 92 | 1016.7 |
| 20260830221527 | 62 | 360 | 0.0 | 3.0 | 0.01 | 0.03 | 0.03 | 92 | 1016.8 |
| 20260830221030 | 62 | 360 | 1.0 | 3.0 | 0.01 | 0.03 | 0.03 | 91 | 1016.8 |
| 20260830220526 | 62 | 360 | 0.0 | 0.0 | 0.01 | 0.03 | 0.03 | 91 | 1016.9 |
| 20260830220026 | 62 | 360 | 0.0 | 0.0 | 0.01 | 0.03 | 0.03 | 91 | 1016.9 |
| 20260830215526 | 62 | 360 | 0.0 | 0.0 | 0.01 | 0.03 | 0.03 | 91 | 1016.9 |
| 20260830215025 | 62 | 304 | 0.0 | 0.0 | 0.02 | 0.03 | 0.03 | 91 | 1017.0 |
| 20260830214526 | 62 | 305 | 0.0 | 0.0 | 0.02 | 0.03 | 0.03 | 91 | 1016.9 |
| 20260830214025 | 62 | 305 | 0.0 | 0.0 | 0.02 | 0.03 | 0.03 | 91 | 1017.0 |
| 20260830213529 | 62 | 305 | 0.0 | 1.0 | 0.02 | 0.03 | 0.03 | 91 | 1016.9 |
| 20260830213045 | 62 | 305 | 0.0 | 3.0 | 0.01 | 0.02 | 0.02 | 91 | 1016.9 |
| 20260830212525 | 62 | 305 | 1.0 | 4.0 | 0.01 | 0.02 | 0.02 | 91 | 1017.0 |
| 20260830212025 | 62 | 305 | 2.0 | 4.0 | 0.01 | 0.02 | 0.02 | 91 | 1017.0 |
| 20260830211525 | 62 | 290 | 0.0 | 4.0 | 0.02 | 0.02 | 0.02 | 90 | 1017.0 |
| 20260830211025 | 62 | 291 | 1.0 | 4.0 | 0.02 | 0.02 | 0.02 | 90 | 1017.0 |
| 20260830210525 | 62 | 273 | 1.0 | 5.0 | 0.02 | 0.02 | 0.02 | 90 | 1017.1 |
| 20260830210026 | 62 | 302 | 2.0 | 9.0 | 0.02 | 0.02 | 0.02 | 90 | 1017.2 |
| 20260830205527 | 62 | 259 | 2.0 | 9.0 | 0.02 | 0.02 | 0.02 | 89 | 1017.2 |
| 20260830205024 | 62 | 306 | 3.0 | 9.0 | 0.01 | 0.01 | 0.01 | 89 | 1017.3 |
| 20260830204536 | 63 | 294 | 4.0 | 9.0 | 0.01 | 0.01 | 0.01 | 89 | 1017.3 |
| 20260830204023 | 63 | 282 | 4.0 | 9.0 | 0.01 | 0.01 | 0.01 | 88 | 1017.2 |
| 20260830203524 | 63 | 287 | 2.0 | 6.0 | 0.01 | 0.01 | 0.01 | 87 | 1017.2 |
| 20260830203023 | 63 | 293 | 3.0 | 10.0 | 0.01 | 0.01 | 0.01 | 86 | 1017.2 |
| 20260830202522 | 64 | 360 | 3.0 | 11.0 | 0.01 | 0.01 | 0.01 | 85 | 1017.2 |
| 20260830202022 | 65 | 360 | 6.0 | 11.0 | 0.01 | 0.01 | 0.01 | 83 | 1017.2 |
| 20260830201520 | 65 | 288 | 4.0 | 13.0 | 0.00 | 0.00 | 0.00 | 81 | 1017.1 |
| 20260830201019 | 66 | 315 | 6.0 | 13.0 | 0.00 | 0.00 | 0.00 | 78 | 1017.0 |
| 20260830200519 | 67 | 302 | 6.0 | 13.0 | 0.00 | 0.00 | 0.00 | 75 | 1016.9 |
| 20260830200019 | 68 | 295 | 8.0 | 13.0 | 0.00 | 0.00 | 0.00 | 71 | 1016.8 |
| 20260830195519 | 68 | 313 | 5.0 | 10.0 | 0.00 | 0.00 | 0.00 | 69 | 1016.8 |
| 20260830195019 | 69 | 297 | 1.0 | 9.0 | 0.00 | 0.00 | 0.00 | 68 | 1016.7 |
| 20260830194521 | 69 | 254 | 3.0 | 9.0 | 0.00 | 0.00 | 0.00 | 67 | 1016.7 |
| 20260830194020 | 69 | 277 | 4.0 | 8.0 | 0.00 | 0.00 | 0.00 | 66 | 1016.7 |
| 20260830193517 | 69 | 275 | 3.0 | 9.0 | 0.00 | 0.00 | 0.00 | 66 | 1016.8 |
| 20260830193029 | 69 | 310 | 3.0 | 8.0 | 0.00 | 0.00 | 0.00 | 67 | 1016.7 |
| 20260830192517 | 69 | 300 | 3.0 | 9.0 | 0.00 | 0.00 | 0.00 | 67 | 1016.7 |
| 20260830192018 | 69 | 279 | 4.0 | 9.0 | 0.00 | 0.00 | 0.00 | 65 | 1016.7 |
| 20260830191528 | 70 | 318 | 4.0 | 8.0 | 0.00 | 0.00 | 0.00 | 65 | 1016.7 |
| 20260830191017 | 70 | 291 | 3.0 | 6.0 | 0.00 | 0.00 | 0.00 | 65 | 1016.7 |
| 20260830190516 | 70 | 321 | 3.0 | 6.0 | 0.00 | 0.00 | 0.00 | 63 | 1016.7 |
| 20260830190016 | 71 | 303 | 2.0 | 5.0 | 0.00 | 0.00 | 0.00 | 62 | 1016.8 |
| 20260830185517 | 71 | 294 | 0.0 | 8.0 | 0.00 | 0.00 | 0.00 | 62 | 1016.8 |
| 20260830185019 | 71 | 295 | 3.0 | 9.0 | 0.00 | 0.00 | 0.00 | 61 | 1016.8 |
| 20260830184519 | 72 | 295 | 4.0 | 10.0 | 0.00 | 0.00 | 0.00 | 60 | 1016.9 |
| 20260830184014 | 72 | 298 | 5.0 | 10.0 | 0.00 | 0.00 | 0.00 | 58 | 1016.9 |
| 20260830183514 | 72 | 309 | 1.0 | 9.0 | 0.00 | 0.00 | 0.00 | 63 | 1016.9 |
| 20260830183014 | 72 | 302 | 3.0 | 5.0 | 0.00 | 0.00 | 0.00 | 60 | 1016.9 |
| 20260830182514 | 72 | 256 | 1.0 | 4.0 | 0.00 | 0.00 | 0.00 | 62 | 1016.9 |
| 20260830182013 | 72 | 322 | 0.0 | 3.0 | 0.00 | 0.00 | 0.00 | 60 | 1016.9 |
| 20260830181513 | 71 | 244 | 1.0 | 3.0 | 0.00 | 0.00 | 0.00 | 62 | 1017.0 |
| 20260830181012 | 72 | 200 | 0.0 | 5.0 | 0.00 | 0.00 | 0.00 | 61 | 1017.1 |
| 20260830180511 | 72 | 288 | 1.0 | 5.0 | 0.00 | 0.00 | 0.00 | 61 | 1017.1 |
| 20260830180015 | 72 | 179 | 2.0 | 4.0 | 0.00 | 0.00 | 0.00 | 60 | 1017.0 |
| 20260830175511 | 71 | 194 | 0.0 | 3.0 | 0.00 | 0.00 | 0.00 | 60 | 1017.0 |
| 20260830175012 | 71 | 231 | 0.0 | 4.0 | 0.00 | 0.00 | 0.00 | 61 | 1017.1 |
| 20260830174510 | 71 | 290 | 1.0 | 6.0 | 0.00 | 0.00 | 0.00 | 61 | 1017.0 |
| 20260830174008 | 71 | 316 | 2.0 | 6.0 | 0.00 | 0.00 | 0.00 | 61 | 1017.1 |
| 20260830173508 | 71 | 220 | 1.0 | 4.0 | 0.00 | 0.00 | 0.00 | 64 | 1017.0 |
| 20260830173006 | 70 | 266 | 0.0 | 4.0 | 0.00 | 0.00 | 0.00 | 61 | 1017.1 |
| 20260830172506 | 70 | 244 | 1.0 | 8.0 | 0.00 | 0.00 | 0.00 | 61 | 1017.1 |
| 20260830172006 | 70 | 248 | 3.0 | 8.0 | 0.00 | 0.00 | 0.00 | 61 | 1017.1 |
| 20260830171505 | 70 | 259 | 0.0 | 5.0 | 0.00 | 0.00 | 0.00 | 66 | 1017.3 |
| 20260830171004 | 70 | 227 | 2.0 | 5.0 | 0.00 | 0.00 | 0.00 | 64 | 1017.5 |
| 20260830170503 | 70 | 157 | 1.0 | 6.0 | 0.00 | 0.00 | 0.00 | 63 | 1017.5 |
| 20260830170001 | 70 | 223 | 1.0 | 6.0 | 0.00 | 0.00 | 0.00 | 63 | 1017.6 |
| 20260830165501 | 70 | 308 | 0.0 | 6.0 | 0.00 | 0.00 | 0.00 | 64 | 1017.7 |
| 20260830165002 | 70 | 225 | 0.0 | 6.0 | 0.00 | 0.00 | 0.00 | 65 | 1017.7 |
| 20260830164604 | 69 | 220 | 0.0 | 5.0 | 0.00 | 0.00 | 0.00 | 65 | 1017.6 |
| 20260830164059 | 69 | 67 | 0.0 | 5.0 | 0.00 | 0.00 | 0.00 | 64 | 1017.8 |
| 20260830163600 | 69 | 206 | 1.0 | 5.0 | 0.00 | 0.00 | 0.00 | 64 | 1017.9 |
| 20260830163102 | 69 | 221 | 1.0 | 6.0 | 0.00 | 0.00 | 0.00 | 62 | 1017.9 |
| 20260830162558 | 69 | 192 | 2.0 | 6.0 | 0.00 | 0.00 | 0.00 | 64 | 1017.9 |
| 20260830162058 | 70 | 66 | 1.0 | 5.0 | 0.00 | 0.00 | 0.00 | 64 | 1017.9 |
| 20260830161618 | 69 | 188 | 2.0 | 5.0 | 0.00 | 0.00 | 0.00 | 65 | 1017.9 |
| 20260830161055 | 70 | 144 | 1.0 | 8.0 | 0.00 | 0.00 | 0.00 | 63 | 1018.0 |
| 20260830160554 | 69 | 210 | 1.0 | 8.0 | 0.00 | 0.00 | 0.00 | 63 | 1018.1 |
| 20260830160054 | 69 | 125 | 1.0 | 4.0 | 0.00 | 0.00 | 0.00 | 66 | 1018.1 |
| 20260830155555 | 69 | 234 | 1.0 | 4.0 | 0.00 | 0.00 | 0.00 | 65 | 1018.2 |
| 20260830155055 | 69 | 271 | 2.0 | 6.0 | 0.00 | 0.00 | 0.00 | 66 | 1018.2 |
| 20260830154554 | 69 | 203 | 3.0 | 6.0 | 0.00 | 0.00 | 0.00 | 65 | 1018.2 |
| 20260830154054 | 69 | 200 | 2.0 | 6.0 | 0.00 | 0.00 | 0.00 | 63 | 1018.1 |
| 20260830153552 | 69 | 219 | 1.0 | 4.0 | 0.00 | 0.00 | 0.00 | 65 | 1018.2 |
| 20260830153052 | 69 | 178 | 0.0 | 7.0 | 0.00 | 0.00 | 0.00 | 63 | 1018.2 |
| 20260830152552 | 69 | 187 | 2.0 | 7.0 | 0.00 | 0.00 | 0.00 | 64 | 1018.3 |
| 20260830152051 | 69 | 209 | 2.0 | 7.0 | 0.00 | 0.00 | 0.00 | 65 | 1018.3 |
| 20260830151550 | 69 | 246 | 1.0 | 6.0 | 0.00 | 0.00 | 0.00 | 64 | 1018.4 |
| 20260830151049 | 68 | 203 | 0.0 | 5.0 | 0.00 | 0.00 | 0.00 | 66 | 1018.3 |
| 20260830150549 | 68 | 268 | 2.0 | 6.0 | 0.00 | 0.00 | 0.00 | 66 | 1018.2 |
| 20260830150112 | 68 | 217 | 3.0 | 6.0 | 0.00 | 0.00 | 0.00 | 66 | 1018.2 |
| 20260830145548 | 68 | 182 | 3.0 | 6.0 | 0.00 | 0.00 | 0.00 | 66 | 1018.3 |
| 20260830145048 | 68 | 212 | 3.0 | 6.0 | 0.00 | 0.00 | 0.00 | 64 | 1018.2 |
| 20260830144547 | 68 | 265 | 1.0 | 5.0 | 0.00 | 0.00 | 0.00 | 63 | 1018.3 |
| 20260830144046 | 68 | 201 | 1.0 | 8.0 | 0.00 | 0.00 | 0.00 | 66 | 1018.3 |
| 20260830143545 | 67 | 232 | 4.0 | 8.0 | 0.00 | 0.00 | 0.00 | 66 | 1018.3 |
| 20260830143045 | 67 | 231 | 2.0 | 7.0 | 0.00 | 0.00 | 0.00 | 68 | 1018.4 |
| 20260830142544 | 66 | 190 | 1.0 | 6.0 | 0.00 | 0.00 | 0.00 | 68 | 1018.4 |
| 20260830142042 | 66 | 241 | 1.0 | 7.0 | 0.00 | 0.00 | 0.00 | 68 | 1018.3 |
| 20260830141539 | 65 | 204 | 3.0 | 9.0 | 0.00 | 0.00 | 0.00 | 68 | 1018.4 |
| 20260830141037 | 65 | 186 | 6.0 | 11.0 | 0.00 | 0.00 | 0.00 | 67 | 1018.3 |
| 20260830140537 | 65 | 193 | 5.0 | 11.0 | 0.00 | 0.00 | 0.00 | 69 | 1018.4 |
| 20260830140038 | 64 | 126 | 5.0 | 8.0 | 0.00 | 0.00 | 0.00 | 69 | 1018.4 |
| 20260830135536 | 64 | 178 | 3.0 | 8.0 | 0.00 | 0.00 | 0.00 | 69 | 1018.5 |
| 20260830135035 | 64 | 186 | 3.0 | 9.0 | 0.00 | 0.00 | 0.00 | 70 | 1018.5 |
| 20260830134540 | 64 | 182 | 4.0 | 8.0 | 0.00 | 0.00 | 0.00 | 70 | 1018.4 |
| 20260830134033 | 63 | 160 | 4.0 | 9.0 | 0.00 | 0.00 | 0.00 | 70 | 1018.4 |
| 20260830133532 | 63 | 164 | 2.0 | 10.0 | 0.00 | 0.00 | 0.00 | 70 | 1018.5 |
| 20260830133036 | 63 | 199 | 6.0 | 10.0 | 0.00 | 0.00 | 0.00 | 69 | 1018.5 |
| 20260830132535 | 63 | 209 | 4.0 | 10.0 | 0.00 | 0.00 | 0.00 | 70 | 1018.6 |
| 20260830132030 | 63 | 159 | 6.0 | 10.0 | 0.00 | 0.00 | 0.00 | 70 | 1018.8 |
| 20260830131529 | 62 | 215 | 4.0 | 9.0 | 0.00 | 0.00 | 0.00 | 71 | 1018.8 |
| 20260830131028 | 62 | 189 | 4.0 | 9.0 | 0.00 | 0.00 | 0.00 | 71 | 1018.8 |
| 20260830130530 | 62 | 171 | 4.0 | 12.0 | 0.00 | 0.00 | 0.00 | 71 | 1018.7 |
| 20260830130027 | 62 | 155 | 5.0 | 12.0 | 0.00 | 0.00 | 0.00 | 71 | 1018.8 |
| 20260830125525 | 62 | 205 | 4.0 | 10.0 | 0.00 | 0.00 | 0.00 | 71 | 1018.7 |
| 20260830125025 | 62 | 198 | 4.0 | 9.0 | 0.00 | 0.00 | 0.00 | 72 | 1018.8 |
| 20260830124527 | 61 | 189 | 5.0 | 9.0 | 0.00 | 0.00 | 0.00 | 72 | 1018.8 |
| 20260830124026 | 61 | 195 | 4.0 | 10.0 | 0.00 | 0.00 | 0.00 | 72 | 1018.8 |
| 20260830123523 | 61 | 197 | 6.0 | 10.0 | 0.00 | 0.00 | 0.00 | 73 | 1018.9 |
| 20260830123022 | 61 | 195 | 4.0 | 12.0 | 0.00 | 0.00 | 0.00 | 74 | 1019.0 |
| 20260830122522 | 61 | 186 | 6.0 | 12.0 | 0.00 | 0.00 | 0.00 | 74 | 1019.0 |
| 20260830122021 | 61 | 213 | 5.0 | 13.0 | 0.00 | 0.00 | 0.00 | 74 | 1019.0 |
| 20260830121520 | 60 | 189 | 5.0 | 11.0 | 0.00 | 0.00 | 0.00 | 74 | 1019.0 |
| 20260830121020 | 61 | 201 | 4.0 | 11.0 | 0.00 | 0.00 | 0.00 | 74 | 1019.0 |
| 20260830120520 | 61 | 196 | 6.0 | 11.0 | 0.00 | 0.00 | 0.00 | 73 | 1019.0 |
| 20260830120022 | 61 | 188 | 5.0 | 11.0 | 0.00 | 0.00 | 0.00 | 74 | 1019.1 |
| 20260830115519 | 61 | 200 | 4.0 | 9.0 | 0.00 | 0.00 | 0.00 | 73 | 1019.1 |
| 20260830115019 | 61 | 179 | 3.0 | 10.0 | 0.00 | 0.00 | 0.00 | 73 | 1019.1 |
| 20260830114518 | 61 | 219 | 2.0 | 10.0 | 0.00 | 0.00 | 0.00 | 73 | 1019.2 |
| 20260830114018 | 61 | 193 | 4.0 | 10.0 | 0.00 | 0.00 | 0.00 | 73 | 1019.3 |
| 20260830113517 | 61 | 200 | 5.0 | 12.0 | 0.00 | 0.00 | 0.00 | 73 | 1019.3 |
| 20260830113018 | 60 | 201 | 5.0 | 10.0 | 0.00 | 0.00 | 0.00 | 74 | 1019.3 |
| 20260830112517 | 60 | 188 | 5.0 | 8.0 | 0.00 | 0.00 | 0.00 | 74 | 1019.2 |
| 20260830112017 | 60 | 196 | 4.0 | 8.0 | 0.00 | 0.00 | 0.00 | 74 | 1019.3 |
| 20260830111516 | 60 | 184 | 4.0 | 8.0 | 0.00 | 0.00 | 0.00 | 74 | 1019.3 |
| 20260830111017 | 60 | 185 | 3.0 | 7.0 | 0.00 | 0.00 | 0.00 | 74 | 1019.5 |
| 20260830110516 | 60 | 196 | 2.0 | 5.0 | 0.00 | 0.00 | 0.00 | 74 | 1019.5 |